User: anonymous   Login
Location: Unspecified
(0.0000°N, 0.0000°E)
Time: 10:19:01
(UTC+00:00)
Language:

HORYU 2 - Orbit

View from above orbital plane
View from above orbital plane
View from above satellite
View from above satellite

Ground track
Ground track

The orbit data is extracted from the following two-line orbital elements,

1 38340U 12025D   17294.91047811 +.00000298 +00000-0 +51966-4 0  9992
2 38340 098.3779 303.3146 0010465 246.7535 113.2571 14.75424480281562
Epoch (UTC): 21 October 2017 21:51:05
Eccentricity: 0.0010465
inclination: 98.3779°
perigee height: 636 km
apogee height: 651 km
right ascension of ascending node: 303.3146°
argument of perigee: 246.7535°
revolutions per day: 14.75424480
mean anomaly at epoch: 113.2571°
orbit number at epoch: 28156

The dashed part of the orbit path shows where the satellite is in the earth's shadow,  

DLR